Clinton, MS (39056)

3:23 PM CDT on July 23, 2016 (GMT -0500)
SPRINGRIDGE MOBILE ESTATES | | Change Station
Active Advisory: Heat Advisory Active Notice: Public Information Statement

Elev 315 ft 32.32 °N, 90.32 °W | Updated 8 seconds ago

Mostly Cloudy
Mostly Cloudy
95.4 °F
Feels Like 110 °F
N
2.0
Wind Variable Wind from WSW
Gusts 4.0 mph

Today
High -- | Low -- °F
--% Chance of Precip.
Yesterday
High -- | Low -- °F
Precip. -- in
Pressure 29.93 in
Visibility 10.0 miles
Clouds Few 6000 ft
Few 9500 ft
Mostly Cloudy 12000 ft
Heat Index 110 °F
Dew Point 77 °F
Humidity 55%
Rainfall 0.00 in
Snow Depth Not available.
6:10 AM 8:04 PM
Waning Gibbous, 83% visible
METAR KHKS 231953Z 15005KT 10SM FEW060 FEW095 BKN120 33/23 A2995 RMK AO2 RAB31E40 SLP133 P0000 T03330233
Pressure 29.93 in
Visibility 10.0 miles
Clouds Few 6000 ft
Few 9500 ft
Mostly Cloudy 12000 ft
Heat Index 110 °F
Dew Point 77 °F
Humidity 55%
Rainfall 0.00 in
Snow Depth Not available.
6:10 AM 8:04 PM
Waning Gibbous, 83% visible
METAR KHKS 231953Z 15005KT 10SM FEW060 FEW095 BKN120 33/23 A2995 RMK AO2 RAB31E40 SLP133 P0000 T03330233

10-Day Weather Forecast

Almanac

Astronomy

Jul. 23, 2016 Rise Set
Actual Time
Civil Twilight
Nautical Twilight
Astronomical Twilight
Moon
Length of Visible Light
Length of Day
Tomorrow will be .
, % of the Moon is Illuminated

Today's Extremes

State Highs State Lows

Community

WunderPhotos

Upload Photos

1,926,916 photos uploaded!

WunderBlog® & News

Nearby

Air Quality

  Air Quality AQ Index Pollutant
Not available.

Snow Depth

Station Depth Elevation

Earthquake Activity

City Distance Mag. Time & Date
Minimum magnitude displayed is 2.5.

Coastal Water Temperatures

Place Temperature

Stations

Nearby Weather Stations

Station Location Temp. Windchill Dew Point Humidity Wind Precip. Elev Updated Type
                   

Watches & Warnings

Heat Advisory
Issued: 3:03 PM CDT Jul. 23, 2016 – National Weather Service

... Heat advisory remains in effect until 7 PM CDT this evening...

* temperature... highs in the middle to upper 90s combined with
high humidity levels will result in heat index readings from
106 to 110.

* Impacts... heat stress will reach dangerous levels and could
lead to heat exhaustion or heat stroke for those working
outdoors.

Precautionary/preparedness actions...

Take extra precautions... if you work or spend time outside. When
possible... reschedule strenuous activities to early morning or
evening. Know the signs and symptoms of heat exhaustion and heat
stroke. Wear light weight and loose fitting clothing when
possible and drink plenty of water.